New Castle, PA

8:02 AM EDT on September 25, 2017 (GMT -0400)
New Castle Municipal

Weather History for KUCP - February, 2013

Change the Weather History Date:

Tuesday, February 26, 2013

  Actual Average Record
Temperature  
Mean Temperature 33 °F -  
Max Temperature 37 °F 39 °F 66 °F (1951)
Min Temperature 29 °F 19 °F -18 °F (1963)
Degree Days  
Heating Degree Days 32    
Moisture  
Dew Point 29 °F    
Average Humidity 83    
Maximum Humidity 93    
Minimum Humidity 55    
Precipitation  
Precipitation 0.62 in - - ()
Sea Level Pressure  
Sea Level Pressure 29.79 in    
Wind  
Wind Speed 11 mph (ESE)    
Max Wind Speed 17 mph    
Max Gust Speed 26 mph    
Visibility 6 miles    
Events Rain , Snow    
Averages and records for this station are not official NWS values.
T = Trace of Precipitation, MM = Missing Value Source: NWS Daily Summary

Daily Weather History Graph

Daily Weather History Graph

Search for Another Location

Airport or City:

Trip Planner

Search our weather history database for the weather conditions in past years. The results will help you decide how hot, cold, wet, or windy it might be!

Date:

Astronomy

Feb. 26, 2013 Rise Set
Actual Time 7:00 AM EST 6:09 PM EST
Civil Twilight 6:32 AM EST 6:37 PM EST
Nautical Twilight 6:00 AM EST 7:09 PM EST
Astronomical Twilight 5:28 AM EST 7:40 PM EST
Moon 7:25 PM EST (2/26) 7:01 AM EST (2/26)
Length of Visible Light 12h 04m
Length of Day
11h 09m
Full, 99% of the Moon is Illuminated
Feb 26
Full
Mar 4
Last Quarter
Mar 11
New
Mar 19
First Quarter
Mar 27
Full

Hourly Weather History & Observations

Time (EST) Temp. Windchill Dew Point Humidity Pressure Visibility Wind Dir Wind Speed Gust Speed Precip Events Conditions
12:56 AM 30.0 °F 23.2 °F 19.0 °F 64% 30.15 in 10.0 mi ENE 6.9 mph - N/A   Clear
1:56 AM 29.1 °F 22.1 °F 19.0 °F 66% 30.14 in 10.0 mi East 6.9 mph - N/A   Clear
2:56 AM 29.1 °F 23.0 °F 19.0 °F 66% 30.13 in 10.0 mi East 5.8 mph - N/A   Clear
3:56 AM 29.1 °F 21.3 °F 19.0 °F 66% 30.09 in 10.0 mi East 8.1 mph - N/A   Clear
4:56 AM 29.1 °F 21.3 °F 20.1 °F 69% 30.07 in 10.0 mi East 8.1 mph - N/A   Clear
5:56 AM 30.0 °F 25.2 °F 20.1 °F 67% 30.06 in 10.0 mi East 4.6 mph - N/A   Clear
7:56 AM 31.1 °F 24.5 °F 21.0 °F 66% 30.02 in 10.0 mi East 6.9 mph - N/A   Clear
8:56 AM 34.9 °F 27.1 °F 22.1 °F 60% 30.01 in 10.0 mi East 10.4 mph - N/A   Clear
9:56 AM 36.9 °F 30.1 °F 22.1 °F 55% 30.00 in 10.0 mi ESE 9.2 mph - N/A   Clear
10:56 AM 37.9 °F 31.5 °F 23.0 °F 55% 29.98 in 10.0 mi ESE 9.2 mph - N/A   Partly Cloudy
11:56 AM 36.9 °F 27.8 °F 27.1 °F 68% 29.94 in 9.0 mi East 15.0 mph - 0.00 in   Mostly Cloudy
12:56 PM 36.9 °F 28.2 °F 28.0 °F 70% 29.91 in 6.0 mi ESE 13.8 mph - 0.00 in Rain Light Rain
1:56 PM 34.9 °F 27.1 °F 30.0 °F 82% 29.86 in 4.0 mi East 10.4 mph - 0.02 in Rain Light Rain
2:44 PM 33.8 °F 25.3 °F 30.2 °F 87% 29.74 in 2.5 mi East 11.5 mph - 0.06 in Rain Rain
2:56 PM 32.9 °F 22.4 °F 30.0 °F 89% 29.82 in 3.0 mi ESE 16.1 mph 26.5 mph 0.07 in Rain Light Rain
3:37 PM 33.8 °F 23.9 °F 30.2 °F 87% 29.73 in 3.0 mi East 15.0 mph - 0.05 in Rain Light Rain
3:48 PM 33.8 °F 23.9 °F 30.2 °F 87% 29.73 in 1.8 mi ESE 15.0 mph - 0.09 in Rain Heavy Rain
3:56 PM 32.9 °F 23.2 °F 30.0 °F 89% 29.79 in 1.2 mi East 13.8 mph - 0.13 in Rain Heavy Rain
4:05 PM 33.8 °F 24.8 °F 30.2 °F 87% 29.70 in 1.8 mi East 12.7 mph - 0.05 in Rain Rain
4:15 PM 33.8 °F 23.5 °F 30.2 °F 87% 29.71 in 2.0 mi East 16.1 mph - 0.08 in Rain Rain
4:31 PM 33.8 °F 25.3 °F 30.2 °F 87% 29.72 in 1.5 mi ESE 11.5 mph - 0.12 in Rain Light Rain
4:37 PM 33.8 °F 24.3 °F 30.2 °F 87% 29.71 in 1.2 mi ESE 13.8 mph - 0.14 in Rain Rain
4:48 PM 33.8 °F 23.5 °F 30.2 °F 87% 29.70 in 2.0 mi East 16.1 mph - 0.16 in Rain Light Rain
4:56 PM 32.9 °F 22.8 °F 31.1 °F 93% 29.77 in 5.0 mi ESE 15.0 mph - 0.18 in Rain Light Rain
4:58 PM 33.8 °F 24.8 °F 30.2 °F 87% 29.70 in 2.5 mi ESE 12.7 mph - 0.01 in Rain Rain
5:02 PM 33.8 °F 25.3 °F 32.0 °F 93% 29.71 in 1.2 mi ESE 11.5 mph - 0.03 in Rain Heavy Rain
5:10 PM 33.8 °F 27.0 °F 30.2 °F 87% 29.72 in 2.5 mi ESE 8.1 mph - 0.03 in Rain Light Rain
5:17 PM 33.8 °F 25.3 °F 30.2 °F 87% 29.71 in 9.0 mi ESE 11.5 mph - 0.03 in   Overcast
5:43 PM 33.8 °F 25.3 °F 32.0 °F 93% 29.69 in 2.5 mi East 11.5 mph - 0.05 in Rain Rain
5:46 PM 33.8 °F 24.8 °F 32.0 °F 93% 29.68 in 1.8 mi East 12.7 mph - 0.05 in Rain Rain
5:56 PM 34.0 °F 24.6 °F 32.0 °F 92% 29.75 in 4.0 mi East 13.8 mph - 0.06 in Rain Rain
6:10 PM 33.8 °F 24.8 °F 32.0 °F 93% 29.68 in 3.0 mi East 12.7 mph - 0.05 in Rain Rain
6:22 PM 33.8 °F 24.3 °F 32.0 °F 93% 29.68 in 6.0 mi East 13.8 mph - 0.06 in Rain Light Rain
6:56 PM 34.0 °F 25.0 °F 32.0 °F 92% 29.74 in 4.0 mi East 12.7 mph - 0.10 in Rain Light Rain
7:03 PM 33.8 °F 24.3 °F 30.2 °F 87% 29.66 in 2.5 mi East 13.8 mph - 0.01 in Snow Light Snow
7:11 PM 33.8 °F 23.5 °F 32.0 °F 93% 29.65 in 3.0 mi East 16.1 mph - 0.02 in   Overcast
7:29 PM 33.8 °F 23.2 °F 32.0 °F 93% 29.63 in 4.0 mi East 17.3 mph - 0.05 in Rain Light Rain
7:39 PM 33.8 °F 23.2 °F 32.0 °F 93% 29.63 in 6.0 mi East 17.3 mph - 0.05 in Rain Light Rain
7:56 PM 34.0 °F 23.4 °F 32.0 °F 92% 29.71 in 6.0 mi East 17.3 mph - 0.06 in Rain Light Rain
8:19 PM 33.8 °F 23.5 °F 32.0 °F 93% 29.63 in 10.0 mi East 16.1 mph - 0.00 in   Overcast
8:56 PM 34.9 °F 25.7 °F 32.9 °F 92% 29.69 in 10.0 mi ESE 13.8 mph - 0.00 in   Overcast
9:56 PM 34.9 °F 25.3 °F 32.0 °F 89% 29.66 in 10.0 mi ESE 15.0 mph - 0.00 in   Overcast
10:09 PM 35.6 °F 25.5 °F 32.0 °F 87% 29.59 in 10.0 mi ESE 17.3 mph - 0.00 in   Overcast
10:56 PM 36.0 °F 28.0 °F 32.0 °F 86% 29.65 in 10.0 mi ESE 11.5 mph - 0.00 in   Overcast
11:56 PM 34.9 °F 27.1 °F 32.9 °F 92% 29.64 in 7.0 mi ESE 10.4 mph - 0.00 in   Overcast